Location: Gombori
(14.9797°N, 2.9419°W)
Time: 10:15:57
(UTC+00:00)

OBJECT-B - Pass Details

Date: 29 July 2021
Orbit: 409 x 418 km, 96.9° (Epoch: 21 September)

Event Time Altitude Azimuth Distance (km) Brightness Sun altitude
Exits shadow 20:33:32 32° 294° (WNW) 731 2.5 -25.3°
Drops below altitude 10° 20:35:46 10° 331° (NNW) 1,487 4.3 -25.8°
Sets 20:37:51 0° 339° (NNW) 2,353 5.3 -26.2°
